Home > Weather > Bastia > Past weeks

Flag for France Past Weather in Bastia, Corsica, France — Yesterday and Last 2 Weeks

Now
72 °F

Clear.


Feels Like: 75 °F
Forecast: 70 / 82 °F
Wind: 3 mph from West

Location: Bastia Airport

Current Time: Jul 26, 2016 at 2:54:00 AM

Latest Report: Jul 26, 2016 at 2:30 AM


Visibility: 10 mi

Pressure: 29.98 "Hg

Humidity: 65%

Dew Point: 59 °F

Location of BastiaLocation

Past Weather in Bastia — Graph

°F

Bastia Temperature Yesterday

Maximum temperature yesterday: 88 °F (at 6:30 PM)
Minimum temperature yesterday: 68 °F (at 4:30 AM)
Average temperature yesterday: 79 °F

High & Low Weather Summary for the Past Weeks

 TemperatureHumidityPressure
High88 °F (Jul 11, 11:30 AM)94% (Jul 23, 3:30 AM)30.18 "Hg (Jul 23, 3:30 AM)
Low63 °F (Jul 16, 2:00 AM)23% (Jul 14, 9:30 AM)29.77 "Hg (Jul 13, 6:30 PM)
Average76 °F61%29.98 "Hg
* Reported Jul 11 1:00 AM — Jul 26 1:30 AM, Bastia, Weather by CustomWeather, © 2016

Note: Actual official high and low records may vary slightly from our data, if they occured in-between our weather recording intervals... More about our weather records

Advertising

Bastia Weather History for the Previous 24 Hours

Scroll right to see more
 ConditionsComfort  
Time TempWeatherWind HumidityBarometerVisibility
1:30 AM
Tue, Jul 26
75 °FClear.7 mph57%29.98 "Hg10 mi
1:00 AM73 °FPassing clouds.6 mph61%29.98 "HgN/A
12:30 AM72 °FClear.5 mph69%29.98 "Hg10 mi
12:00 AM70 °FClear.3 mph78%29.98 "Hg10 mi
11:30 PM
Mon, Jul 25
72 °FClear.3 mph83%29.98 "Hg10 mi
11:00 PM73 °FClear.No wind78%29.98 "Hg10 mi
10:30 PM73 °FClear.1 mph78%29.98 "Hg10 mi
10:00 PM73 °FClear.1 mph83%29.98 "Hg10 mi
9:30 PM75 °FSunny.No wind78%29.98 "Hg10 mi
9:00 PM77 °FSunny.2 mph79%29.95 "Hg10 mi
8:30 PM79 °FSunny.5 mph70%29.95 "Hg10 mi
8:00 PM81 °FSunny.5 mph66%29.95 "Hg10 mi
7:30 PM84 °FPassing clouds.6 mph55%29.95 "HgN/A
7:00 PM84 °FPassing clouds.5 mph58%29.92 "HgN/A
6:30 PM88 °FPassing clouds.8 mph38%29.95 "HgN/A
6:00 PM86 °FPassing clouds.6 mph49%29.92 "HgN/A
5:30 PM86 °FPassing clouds.7 mph49%29.92 "HgN/A
5:00 PM86 °FPassing clouds.9 mph49%29.92 "HgN/A
4:30 PM86 °FPassing clouds.5 mph49%29.95 "HgN/A
4:00 PM84 °FPassing clouds.6 mph51%29.95 "HgN/A
3:30 PM84 °FPassing clouds.10 mph58%29.95 "HgN/A
3:00 PM86 °FPassing clouds.8 mph52%29.95 "HgN/A
2:30 PM86 °FPassing clouds.8 mph52%29.95 "HgN/A
2:00 PM86 °FPassing clouds.10 mph52%29.98 "HgN/A
1:30 PM86 °FPassing clouds.10 mph52%29.98 "HgN/A
1:00 PM86 °FPassing clouds.8 mph49%29.98 "HgN/A
12:30 PM86 °FPassing clouds.12 mph52%29.98 "HgN/A
12:00 PM84 °FScattered clouds.12 mph51%29.98 "HgN/A
11:30 AM84 °FScattered clouds.13 mph55%29.98 "HgN/A
11:00 AM82 °FScattered clouds.12 mph58%29.98 "HgN/A
10:30 AM84 °FPassing clouds.10 mph45%29.95 "HgN/A
10:00 AM84 °FPassing clouds.13 mph51%29.95 "HgN/A
9:30 AM84 °FPassing clouds.7 mph45%29.95 "HgN/A
9:00 AM81 °FPartly sunny.5 mph54%29.95 "HgN/A
8:30 AM79 °FPartly sunny.5 mph58%29.95 "HgN/A
8:00 AM77 °FPassing clouds.5 mph65%29.95 "HgN/A
7:30 AM77 °FSunny.2 mph65%29.95 "Hg10 mi
7:00 AM77 °FClear.10 mph57%29.95 "Hg10 mi
6:30 AM75 °FClear.10 mph65%29.95 "Hg10 mi
6:00 AM75 °FClear.12 mph65%29.92 "Hg10 mi
5:30 AM73 °FPassing clouds.13 mph69%29.92 "HgN/A
5:00 AM68 °FPassing clouds.6 mph83%29.95 "HgN/A
4:30 AM68 °FPassing clouds.1 mph88%29.95 "HgN/A
4:00 AM70 °FPassing clouds.3 mph83%29.98 "HgN/A
3:30 AM70 °FPassing clouds.2 mph88%29.98 "HgN/A
3:00 AM70 °FClear.2 mph88%29.98 "Hg10 mi
2:30 AM72 °FClear.No wind83%29.98 "Hg10 mi
2:00 AM72 °FClear.3 mph83%29.98 "Hg10 mi
Weather by CustomWeather, © 2016

See weather overviewHow to use our weather pages